CW5306 Weather Reports


time (UTC)temp
F
wind
direction
speed
knots
gust
knots
rain 1hr
in
rain 24hr
in
rain mn
in
humidity
%
barometer
mb
20260831181709 80 109 0.0 14.8 0.00 0.17 0.02 77 1017.1
20260831181703 80 55 9.6 20.0 0.00 0.17 0.02 75 1017.4
20260831180703 80 93 7.0 14.8 0.00 0.17 0.02 76 1017.4
20260831180203 80 61 0.0 14.8 0.00 0.17 0.02 76 1017.1
20260831175703 80 103 7.0 14.8 0.00 0.17 0.02 75 1017.2
20260831175203 79 46 5.2 16.5 0.00 0.17 0.02 76 1017.2
20260831174935 79 110 0.9 16.5 0.00 0.17 0.02 77 1017.2
20260831174204 79 52 7.8 16.5 0.00 0.17 0.02 77 1017.2
20260831173704 79 103 6.1 16.5 0.00 0.17 0.02 78 1017.1
20260831173153 79 101 12.2 16.5 0.00 0.17 0.02 78 1016.9
20260831172652 79 84 5.2 14.8 0.00 0.17 0.02 77 1016.9
20260831172152 79 92 0.0 18.2 0.00 0.17 0.02 77 1016.7
20260831171651 79 67 4.3 18.2 0.00 0.17 0.02 76 1017.0
20260831171152 79 96 7.0 18.2 0.00 0.17 0.02 77 1016.7
20260831170652 78 89 9.6 18.2 0.00 0.17 0.02 76 1016.5
20260831170424 78 123 8.7 16.5 0.00 0.17 0.02 76 1016.6
20260831165651 79 89 9.6 16.5 0.00 0.17 0.02 76 1016.6
20260831165139 79 88 7.8 18.2 0.00 0.17 0.02 77 1016.5
20260831164639 78 138 7.8 20.0 0.00 0.17 0.02 77 1016.6
20260831164140 78 75 9.6 20.0 0.00 0.17 0.02 78 1016.6
20260831163640 78 34 7.8 16.5 0.00 0.17 0.02 77 1016.5
20260831163140 78 107 7.0 16.5 0.00 0.17 0.02 78 1016.4
20260831162640 78 105 7.0 18.2 0.00 0.17 0.02 77 1016.5
20260831162359 78 122 7.8 18.2 0.00 0.17 0.02 77 1016.4
20260831161627 78 76 11.3 14.8 0.00 0.17 0.02 78 1016.4
20260831161116 78 66 7.0 20.9 0.00 0.17 0.02 78 1015.9
20260831160615 78 72 9.6 20.9 0.00 0.17 0.02 78 1016.3
20260831160117 78 114 5.2 20.9 0.00 0.17 0.02 76 1016.1
20260831155615 78 125 7.0 18.2 0.00 0.17 0.02 77 1016.1
20260831155115 78 83 8.7 20.9 0.00 0.17 0.02 78 1016.1
20260831154616 77 107 4.3 20.9 0.00 0.17 0.02 78 1016.0
20260831154123 77 63 7.0 17.4 0.00 0.17 0.02 79 1016.3
20260831154117 77 99 7.8 14.8 0.00 0.17 0.02 77 1016.1
20260831153115 77 86 6.1 17.4 0.00 0.17 0.02 78 1016.1
20260831152615 77 142 7.0 17.4 0.00 0.17 0.02 78 1016.4
20260831152116 77 89 7.8 20.0 0.00 0.17 0.02 78 1016.4
20260831151615 78 146 4.3 20.0 0.00 0.17 0.02 79 1016.2
20260831151353 77 125 7.0 18.2 0.00 0.17 0.02 78 1016.1
20260831151115 78 97 9.6 18.2 0.00 0.17 0.02 78 1016.1
20260831150115 77 85 11.3 18.2 0.00 0.17 0.02 78 1016.2
20260831145615 77 72 8.7 20.9 0.00 0.17 0.02 79 1016.1
20260831145115 77 85 7.8 20.9 0.00 0.17 0.02 79 1015.9
20260831144616 77 91 7.8 18.2 0.00 0.17 0.02 79 1015.8
20260831144116 77 80 9.6 18.2 0.00 0.17 0.02 80 1015.9
20260831143846 77 112 9.6 16.5 0.00 0.17 0.02 80 1016.0
20260831143116 77 28 6.1 16.5 0.00 0.17 0.02 80 1015.7
20260831142617 77 138 5.2 14.8 0.00 0.17 0.02 79 1015.8
20260831142115 77 76 8.7 16.5 0.00 0.17 0.02 78 1015.9
20260831141616 77 91 3.5 18.2 0.00 0.17 0.02 78 1015.8
20260831141116 77 110 12.2 18.2 0.00 0.17 0.02 78 1015.7
20260831140616 77 73 9.6 18.2 0.00 0.17 0.02 79 1015.6
20260831140116 78 101 7.8 21.7 0.00 0.17 0.02 80 1015.7
20260831135616 77 66 7.8 21.7 0.00 0.17 0.02 80 1015.6
20260831135115 78 53 10.4 18.2 0.00 0.17 0.02 80 1015.8
20260831134616 78 80 8.7 18.2 0.00 0.17 0.02 81 1015.8
20260831134347 78 84 13.9 17.4 0.00 0.17 0.02 82 1015.8
20260831133617 78 117 7.0 17.4 0.00 0.17 0.02 83 1015.9
20260831133116 78 71 10.4 18.2 0.00 0.17 0.02 82 1015.9
20260831132616 78 88 7.8 18.2 0.00 0.17 0.02 82 1015.7
20260831132115 78 28 11.3 18.2 0.00 0.17 0.02 81 1015.9
20260831131846 78 85 10.4 18.2 0.00 0.17 0.02 82 1015.8
20260831131115 78 110 10.4 18.2 0.00 0.17 0.02 83 1015.8
20260831130847 78 61 9.6 18.2 0.00 0.17 0.02 83 1015.8
20260831130347 77 93 10.4 16.5 0.00 0.17 0.02 83 1016.0
20260831125615 77 105 7.0 16.5 0.00 0.17 0.02 84 1016.0
20260831125116 77 123 7.8 11.3 0.00 0.17 0.02 86 1016.1
20260831124616 77 111 3.5 12.2 0.00 0.17 0.02 86 1016.2
20260831124116 77 100 5.2 12.2 0.00 0.17 0.02 86 1016.4
20260831123616 76 124 3.5 12.2 0.00 0.17 0.02 86 1016.3
20260831123116 76 135 5.2 13.0 0.00 0.17 0.02 85 1016.3
20260831122616 76 100 4.3 13.0 0.00 0.17 0.02 85 1016.6
20260831122116 76 127 4.3 13.0 0.00 0.17 0.02 85 1016.4
20260831121618 76 106 5.2 13.0 0.00 0.17 0.02 85 1016.6
20260831121346 76 137 4.3 13.9 0.00 0.17 0.02 85 1016.7
20260831120847 76 124 7.0 13.9 0.00 0.17 0.02 85 1016.8
20260831120116 76 102 5.2 14.8 0.00 0.17 0.02 85 1016.6
20260831115848 76 111 7.0 14.8 0.00 0.17 0.02 85 1016.8
20260831115348 76 69 4.3 13.9 0.00 0.17 0.02 85 1016.9
20260831114616 76 97 7.8 14.8 0.00 0.17 0.02 85 1016.9
20260831114116 77 76 4.3 14.8 0.00 0.17 0.02 86 1017.0
20260831113616 77 108 4.3 14.8 0.00 0.17 0.02 85 1016.8
20260831113346 77 110 4.3 13.9 0.00 0.17 0.02 85 1016.9
20260831112615 76 87 9.6 13.9 0.00 0.17 0.02 85 1017.0
20260831112115 76 87 8.7 17.4 0.00 0.17 0.02 85 1017.0
20260831111615 76 90 9.6 17.4 0.00 0.17 0.02 85 1017.1
20260831111116 76 113 7.0 13.0 0.01 0.17 0.02 86 1017.1
20260831110615 76 90 3.5 13.0 0.01 0.17 0.02 86 1017.1
20260831110116 76 80 7.0 17.4 0.02 0.17 0.02 86 1017.1
20260831105616 76 87 7.0 18.2 0.02 0.17 0.02 87 1017.5
20260831105115 75 109 10.4 18.2 0.02 0.17 0.02 87 1017.2
20260831104615 75 120 9.6 18.2 0.02 0.17 0.02 88 1017.4
20260831104115 74 114 6.1 14.8 0.02 0.17 0.02 89 1017.6
20260831103846 74 96 7.8 13.0 0.02 0.17 0.02 90 1017.6
20260831103118 73 137 5.2 13.9 0.02 0.17 0.02 90 1017.7
20260831102616 74 104 7.8 14.8 0.02 0.17 0.02 90 1017.9
20260831102115 74 157 7.0 18.2 0.02 0.17 0.01 90 1018.1
20260831101615 74 97 7.0 24.3 0.02 0.17 0.01 90 1018.1
20260831101115 75 85 10.4 24.3 0.01 0.17 0.01 90 1017.9
20260831100615 75 137 11.3 24.3 0.01 0.16 0.00 90 1017.8
20260831100115 75 142 11.3 24.3 0.03 0.16 0.00 89 1017.9
20260831095615 75 150 0.0 7.8 0.03 0.16 0.16 90 1017.6
20260831095115 74 115 1.7 8.7 0.03 0.16 0.16 90 1017.7
20260831094616 74 133 3.5 8.7 0.03 0.16 0.16 90 1018.0
20260831094116 74 140 0.0 7.8 0.03 0.16 0.16 90 1017.9
20260831093616 74 122 4.3 9.6 0.03 0.16 0.16 90 1017.8
20260831093116 74 131 0.0 9.6 0.03 0.16 0.16 90 1018.1
20260831092616 73 140 0.0 11.3 0.03 0.15 0.15 90 1018.3
20260831092347 73 120 2.6 12.2 0.03 0.15 0.15 90 1018.4
20260831091616 73 143 3.5 14.8 0.03 0.15 0.15 89 1018.5
20260831091347 73 58 12.2 17.4 0.03 0.15 0.15 88 1018.8
20260831090615 74 111 13.9 24.3 0.02 0.15 0.15 87 1018.5
20260831090115 75 92 7.0 24.3 0.00 0.13 0.15 86 1018.7
20260831085615 76 133 8.7 18.2 0.00 0.13 0.13 87 1018.7
20260831085115 76 123 8.7 13.9 0.00 0.13 0.13 88 1018.2
20260831084615 76 92 3.5 13.0 0.00 0.13 0.13 88 1018.1
20260831084115 76 116 8.7 13.0 0.02 0.13 0.13 88 1018.0
20260831083615 76 74 0.0 12.2 0.06 0.13 0.13 89 1018.1
20260831083115 76 77 5.2 12.2 0.06 0.13 0.13 89 1018.3
20260831082615 75 49 7.0 13.0 0.08 0.13 0.13 89 1018.2
20260831082116 75 72 5.2 13.0 0.09 0.13 0.13 89 1018.2
20260831081846 75 103 4.3 12.2 0.09 0.13 0.13 90 1018.3
20260831081117 74 88 4.3 13.0 0.09 0.13 0.13 90 1018.4
20260831080846 74 91 3.5 13.0 0.09 0.13 0.13 90 1018.4
20260831080115 74 104 0.9 12.2 0.09 0.13 0.13 90 1018.3
20260831075615 74 91 7.0 13.0 0.09 0.13 0.13 89 1018.4
20260831075116 74 99 7.0 17.4 0.09 0.13 0.13 89 1018.6
20260831074615 74 126 7.0 22.6 0.09 0.12 0.12 89 1018.4
20260831074115 75 67 4.3 22.6 0.07 0.11 0.11 87 1018.7
20260831073616 76 90 3.5 14.8 0.03 0.06 0.06 87 1018.2
20260831073115 77 114 7.8 17.4 0.03 0.06 0.06 86 1018.4
20260831072616 78 143 12.2 17.4 0.01 0.04 0.04 84 1018.4
20260831072347 78 75 8.7 14.8 0.00 0.03 0.03 83 1018.0
20260831071615 78 141 5.2 12.2 0.00 0.03 0.03 83 1018.2
20260831071115 78 108 5.2 14.8 0.00 0.03 0.03 83 1018.1
20260831070847 78 92 3.5 14.8 0.00 0.03 0.03 82 1018.3
20260831070347 78 96 7.0 14.8 0.00 0.03 0.03 82 1018.2
20260831065615 78 79 7.8 16.5 0.00 0.03 0.03 82 1017.9
20260831065115 78 90 7.8 18.2 0.00 0.03 0.03 82 1017.9
20260831064846 78 66 7.0 18.2 0.00 0.03 0.03 82 1018.0
20260831064115 78 108 7.8 14.8 0.00 0.03 0.03 82 1017.7
20260831063616 78 79 7.8 16.5 0.00 0.03 0.03 83 1017.7
20260831063116 77 66 7.8 14.8 0.00 0.03 0.03 83 1017.8
20260831062848 77 49 5.2 13.9 0.00 0.03 0.03 86 1017.6
20260831062116 77 54 6.1 13.9 0.00 0.03 0.03 86 1017.7
20260831061616 76 115 6.1 9.6 0.00 0.03 0.03 85 1017.5
20260831061115 77 136 5.2 13.9 0.00 0.03 0.03 85 1017.5
20260831060615 77 125 3.5 13.9 0.00 0.03 0.03 85 1017.4
20260831060347 77 50 3.5 12.2 0.01 0.03 0.03 86 1017.3
20260831055616 77 123 4.3 12.2 0.02 0.03 0.03 86 1017.5
20260831055115 77 85 5.2 13.0 0.02 0.03 0.03 86 1017.6
20260831054615 77 89 5.2 13.0 0.02 0.03 0.03 86 1017.5
20260831054115 76 103 6.1 12.2 0.02 0.03 0.03 86 1017.2
20260831053614 76 132 7.0 12.2 0.02 0.03 0.03 87 1017.3
20260831053114 76 127 3.5 13.0 0.02 0.03 0.03 87 1017.1
20260831052614 76 120 5.2 13.0 0.02 0.03 0.03 87 1017.2
20260831052114 76 124 0.0 12.2 0.02 0.03 0.03 88 1017.2
20260831051614 76 109 0.9 12.2 0.02 0.03 0.03 88 1017.0
20260831051114 76 55 4.3 9.6 0.02 0.03 0.03 88 1016.8
20260831050603 76 54 5.2 12.2 0.02 0.03 0.03 87 1016.9
20260831045833 77 131 7.8 14.8 0.00 0.02 0.02 84 1016.7
20260831045103 78 83 7.8 14.8 0.00 0.01 0.01 83 1017.0
20260831044602 77 64 5.2 17.4 0.00 0.01 0.01 83 1016.9
20260831044102 77 100 9.6 17.4 0.00 0.01 0.01 83 1016.8
20260831043602 77 98 9.6 14.8 0.00 0.01 0.01 84 1016.6
20260831043103 77 89 7.0 14.8 0.00 0.01 0.01 84 1016.6
20260831042834 78 58 6.1 18.2 0.00 0.01 0.01 85 1016.7
20260831042335 78 66 7.8 18.2 0.00 0.01 0.01 85 1016.6
20260831041839 78 46 4.3 18.2 0.01 0.01 0.01 82 1016.6
20260831041603 78 74 5.2 18.2 0.01 0.01 0.01 83 1016.5
20260831040602 78 96 3.5 20.0 0.01 0.01 0.01 83 1016.4
20260831035603 78 82 14.8 20.0 0.01 0.01 0.01 85 1016.5
20260831035103 78 92 10.4 20.0 0.01 0.01 0.01 85 1016.5
20260831034602 78 108 5.2 20.0 0.01 0.01 0.01 85 1016.4
20260831034103 78 107 12.2 18.2 0.00 0.01 0.01 85 1016.0
20260831033833 78 73 9.6 14.8 0.00 0.01 0.01 85 1015.9
20260831033102 78 74 10.4 14.8 0.00 0.01 0.01 86 1016.0
20260831032601 78 91 5.2 17.4 0.00 0.01 0.01 86 1015.9
20260831032103 78 30 10.4 18.2 0.00 0.01 0.01 86 1016.1
20260831031602 79 39 9.6 18.2 0.00 0.00 0.01 84 1016.2
20260831031059 80 82 8.7 16.5 0.00 0.00 0.00 80 1015.9
20260831030600 80 68 6.1 16.5 0.00 0.00 0.00 78 1016.1
20260831030100 80 94 7.8 16.5 0.00 0.00 0.00 77 1016.0
20260831025831 80 70 6.1 11.3 0.00 0.00 0.00 78 1016.0
20260831025101 80 135 6.1 13.0 0.00 0.00 0.00 78 1016.1
20260831024830 80 112 9.6 13.0 0.00 0.00 0.00 78 1016.0
20260831024059 80 79 3.5 14.8 0.00 0.00 0.00 78 1016.1
20260831023600 80 136 7.8 14.8 0.00 0.00 0.00 77 1016.0
20260831023059 80 54 4.3 12.2 0.00 0.00 0.00 77 1016.0
20260831022836 80 102 4.3 13.0 0.00 0.00 0.00 76 1016.2
20260831022559 80 90 5.2 12.2 0.00 0.00 0.00 76 1016.1
20260831021559 80 146 7.8 14.8 0.00 0.00 0.00 75 1016.1
20260831021058 80 139 4.3 20.9 0.00 0.00 0.00 74 1016.1
20260831020559 80 79 7.8 20.9 0.00 0.00 0.00 76 1016.5
20260831020059 80 115 8.7 18.2 0.00 0.00 0.00 76 1016.1
20260831015601 80 79 7.8 12.2 0.00 0.00 0.00 77 1016.2
20260831015046 80 62 6.1 13.0 0.00 0.00 0.00 76 1016.1
20260831014545 79 83 4.3 20.0 0.00 0.00 0.00 77 1016.3
20260831014045 80 90 6.1 20.0 0.00 0.00 0.00 77 1016.2
20260831013816 81 81 9.6 20.0 0.00 0.00 0.00 74 1016.1
20260831013046 82 49 8.7 14.8 0.00 0.00 0.00 75 1016.1
20260831012546 82 62 7.0 17.4 0.00 0.00 0.00 72 1016.1
20260831012046 83 105 9.6 21.7 0.00 0.00 0.00 73 1016.0
20260831011804 82 115 9.6 21.7 0.00 0.00 0.00 73 1016.3
20260831011033 82 107 5.2 14.8 0.00 0.00 0.00 73 1016.6
20260831010534 82 91 7.8 14.8 0.00 0.00 0.00 72 1016.4
20260831010034 83 88 8.7 17.4 0.00 0.00 0.00 71 1016.7
20260831005805 83 105 11.3 17.4 0.00 0.00 0.00 71 1016.4
20260831005035 83 62 5.2 13.9 0.00 0.00 0.00 71 1016.5
20260831004534 83 91 7.0 13.9 0.00 0.00 0.00 70 1016.5
20260831004252 83 73 5.2 13.9 0.00 0.00 0.00 71 1016.3
20260831003522 83 26 3.5 14.8 0.00 0.00 0.00 73 1016.4
20260831003022 82 103 7.8 17.4 0.00 0.00 0.00 72 1016.9
20260831002521 82 66 7.0 17.4 0.00 0.00 0.00 73 1016.6
20260831002022 82 82 6.1 14.8 0.00 0.00 0.00 73 1016.9
20260831001522 82 76 7.8 16.5 0.00 0.00 0.00 73 1016.9
20260831001022 82 113 7.0 16.5 0.00 0.00 0.00 74 1017.1
20260831000509 82 82 7.0 14.8 0.00 0.00 0.00 74 1017.1
20260831000009 82 76 7.0 16.5 0.00 0.00 0.00 74 1016.9
20260830235509 82 157 4.3 16.5 0.00 0.00 0.00 74 1017.2
20260830235009 82 115 9.6 16.5 0.00 0.00 0.00 73 1017.1
20260830234509 83 73 9.6 16.5 0.00 0.00 0.00 73 1017.0
20260830234010 82 101 9.6 16.5 0.00 0.00 0.00 73 1017.2
20260830233509 82 134 5.2 16.5 0.00 0.00 0.00 73 1017.3
20260830233010 82 79 11.3 14.8 0.00 0.00 0.00 75 1017.2
20260830232740 82 64 9.6 14.8 0.00 0.00 0.00 73 1017.4
20260830232242 82 79 6.1 16.5 0.00 0.00 0.00 76 1017.4
20260830231509 82 102 9.6 17.4 0.00 0.00 0.00 75 1017.6
20260830231241 82 116 7.8 16.5 0.00 0.00 0.00 74 1017.5
20260830230510 82 97 7.8 18.2 0.00 0.00 0.00 74 1017.5
20260830230010 82 102 7.8 18.2 0.00 0.00 0.00 74 1017.7
20260830225510 82 102 7.8 14.8 0.00 0.00 0.00 75 1017.7
20260830225010 82 106 7.8 18.2 0.00 0.00 0.00 76 1017.8
20260830224510 82 76 4.3 18.2 0.00 0.00 0.00 76 1017.9
20260830224005 83 121 9.6 16.5 0.00 0.00 0.00 76 1017.8
20260830223456 83 103 6.1 12.2 0.00 0.00 0.00 75 1018.1
20260830222956 82 61 7.0 17.4 0.00 0.00 0.00 77 1018.0
20260830222504 82 96 8.7 18.2 0.00 0.00 0.00 76 1018.1
20260830222457 82 104 11.3 18.2 0.00 0.00 0.00 75 1018.1
20260830221459 81 54 9.6 18.2 0.00 0.00 0.00 75 1018.3
20260830220957 82 82 7.0 18.2 0.00 0.00 0.00 74 1018.4
20260830220450 82 69 7.8 20.0 0.00 0.00 0.00 74 1018.2
20260830215945 82 65 10.4 20.0 0.00 0.00 0.00 75 1018.2
20260830215445 82 94 6.1 16.5 0.00 0.00 0.00 74 1017.9
20260830214945 81 40 5.2 16.5 0.00 0.00 0.00 78 1018.3
20260830214445 81 60 12.2 20.9 0.00 0.00 0.00 80 1018.3
20260830213944 80 55 6.1 20.9 0.00 0.00 0.00 81 1018.2
20260830213445 79 41 9.6 20.9 0.00 0.00 0.00 81 1018.3
20260830212945 80 60 13.0 24.3 0.00 0.00 0.00 81 1018.4
20260830212433 80 88 12.2 20.9 0.00 0.00 0.00 80 1018.5
20260830211935 81 69 11.3 14.8 0.00 0.00 0.00 76 1018.1
20260830211705 82 88 7.8 17.4 0.00 0.00 0.00 76 1018.4
20260830210932 82 108 11.3 17.4 0.00 0.00 0.00 74 1018.4
20260830210432 82 62 8.7 16.5 0.00 0.00 0.00 73 1018.2
20260830205931 82 66 8.7 16.5 0.00 0.00 0.00 75 1018.5
20260830205431 82 113 10.4 16.5 0.00 0.00 0.00 75 1018.4
20260830204932 82 68 11.3 17.4 0.00 0.00 0.00 75 1018.3
20260830204432 82 116 8.7 17.4 0.00 0.00 0.00 74 1018.5
20260830203931 81 133 7.0 16.5 0.00 0.00 0.00 72 1018.3
20260830203433 81 121 7.0 13.9 0.00 0.00 0.00 74 1018.1
20260830203201 81 116 7.8 13.9 0.00 0.00 0.00 74 1018.3
20260830202430 81 65 7.0 13.9 0.00 0.00 0.00 74 1018.2
20260830201932 80 70 7.8 13.9 0.00 0.00 0.00 75 1018.4
20260830201431 80 78 7.0 13.0 0.00 0.00 0.00 74 1018.3
20260830200931 79 120 3.5 13.9 0.00 0.00 0.00 73 1018.1
20260830200432 79 90 7.0 14.8 0.00 0.00 0.00 73 1018.7
20260830195936 77 105 7.8 13.9 0.00 0.00 0.00 76 1018.5
20260830195931 78 93 4.3 14.8 0.00 0.00 0.00 75 1018.4
20260830194930 77 75 2.6 22.6 0.00 0.00 0.00 78 1018.4
20260830194431 77 71 8.7 22.6 0.00 0.00 0.00 79 1018.7
20260830193931 78 68 13.9 20.0 0.00 0.00 0.00 77 1018.5
20260830193431 78 153 8.7 25.2 0.00 0.00 0.00 79 1018.2
20260830192930 78 103 12.2 29.5 0.00 0.00 0.00 78 1018.4
20260830192430 78 81 9.6 29.5 0.00 0.00 0.00 78 1018.3
20260830192201 80 94 8.7 22.6 0.00 0.00 0.00 78 1018.2
20260830191431 80 85 14.8 22.6 0.00 0.00 0.00 78 1018.1
20260830190931 80 92 10.4 17.4 0.00 0.00 0.00 73 1018.1
20260830190419 81 81 9.6 17.4 0.00 0.00 0.00 74 1018.0
20260830185907 80 87 7.8 17.4 0.00 0.00 0.00 75 1017.8
20260830185408 80 67 9.6 18.2 0.00 0.00 0.00 75 1017.7
20260830184907 80 100 9.6 18.2 0.00 0.00 0.00 74 1017.9
20260830184407 80 72 7.0 16.5 0.00 0.00 0.00 75 1018.1
20260830183907 79 69 7.0 16.5 0.00 0.00 0.00 75 1018.0
20260830183407 79 88 7.8 16.5 0.00 0.00 0.00 74 1017.7
20260830183138 80 99 9.6 17.4 0.00 0.00 0.00 74 1017.8
20260830182406 80 46 7.0 17.4 0.00 0.00 0.00 76 1017.6